KF8ADQ-10 Weather Reports


time (UTC)temp
F
wind
direction
speed
knots
gust
knots
rain 1hr
in
rain 24hr
in
rain mn
in
humidity
%
barometer
mb
20260510093006 48 270 0.0 4.3 0.00 0.00 0.00 97 100.8
20260510090006 50 23 0.0 6.1 0.00 0.00 0.00 95 100.8
20260510083006 51 45 0.0 6.1 0.00 0.00 0.00 99 100.8
20260510080007 52 90 0.0 5.2 0.00 0.00 0.00 99 100.7
20260510073006 53 0 0.0 4.3 0.00 0.00 0.00 99 100.7
20260510070007 52 90 0.0 4.3 0.00 0.00 0.00 99 100.6
20260510063007 53 180 0.0 4.3 0.00 0.00 0.00 99 100.6
20260510060007 53 180 0.0 2.6 0.00 0.00 0.00 99 100.5
20260510053007 53 180 0.0 0.0 0.00 0.00 0.00 99 100.5
20260510050006 53 225 0.0 0.0 0.00 0.00 0.00 99 100.5
20260510043006 54 225 0.0 2.6 0.00 0.00 0.00 99 100.5
20260510040007 55 180 0.0 2.6 0.00 0.00 0.00 99 100.5
20260510033007 54 158 0.0 13.0 0.00 0.00 0.00 99 100.5
20260510030007 55 270 0.0 13.0 0.00 0.00 0.00 99 100.5
20260510023007 54 158 0.0 0.0 0.00 0.00 0.00 99 100.4
20260510020006 54 180 0.0 0.0 0.00 0.00 0.00 99 100.4
20260510013006 54 158 0.0 3.5 0.00 0.00 0.00 99 100.4
20260510010007 55 135 0.0 6.1 0.00 0.00 0.00 99 100.4
20260510003006 55 203 0.0 9.6 0.00 0.00 0.00 98 100.4
20260510000006 56 23 0.0 9.6 0.00 0.00 0.00 96 100.4
20260509233007 66 270 0.0 9.6 0.00 0.00 0.00 66 100.1
20260509230006 67 113 0.0 11.3 0.00 0.00 0.00 63 100.1
20260509223006 68 203 0.0 11.3 0.00 0.00 0.00 62 100.1
20260509220006 69 203 0.0 11.3 0.00 0.00 0.00 58 100.1
20260509213006 71 248 0.0 10.4 0.00 0.00 0.00 55 100.1
20260509210006 71 225 0.0 9.6 0.00 0.00 0.00 57 100.2
20260509203006 71 248 0.0 9.6 0.00 0.00 0.00 59 100.2
20260509200006 68 270 0.0 7.8 0.00 0.00 0.00 62 100.2
20260509193006 69 203 0.0 7.8 0.00 0.00 0.00 62 100.3
20260509190006 69 248 0.0 7.8 0.00 0.00 0.00 62 100.3
20260509183006 68 203 0.0 7.8 0.00 0.00 0.00 67 100.3
20260509180006 65 225 0.0 6.1 0.00 0.00 0.00 70 100.3
20260509173007 65 225 0.0 6.1 0.00 0.00 0.00 72 100.3
20260509170006 66 180 0.0 6.1 0.00 0.00 0.00 72 100.4
20260509163006 63 90 0.0 6.1 0.00 0.00 0.00 78 100.4
20260509160006 62 180 0.0 5.2 0.00 0.00 0.00 83 100.4
20260509153007 59 203 0.0 4.3 0.00 0.00 0.00 88 100.4
20260509150006 58 270 0.0 4.3 0.00 0.00 0.00 95 100.4
20260509143006 55 248 0.0 4.3 0.00 0.00 0.00 99 100.4
20260509140006 54 180 0.0 4.3 0.00 0.00 0.00 99 100.4
20260509133007 53 203 0.0 3.5 0.00 0.00 0.00 99 100.4
20260509130007 53 113 0.0 1.7 0.00 0.00 0.00 99 100.4
20260509123007 52 180 0.0 0.0 0.00 0.00 0.00 99 100.4
20260509120006 51 158 0.0 1.7 0.00 0.00 0.00 99 100.4
20260509113007 51 158 0.0 1.7 0.00 0.00 0.00 99 100.4
20260509110010 51 225 0.0 3.5 0.00 0.00 0.00 99 100.4
20260509103006 51 158 0.0 3.5 0.00 0.00 0.00 99 100.4
20260509100009 51 158 0.0 5.2 0.00 0.00 0.00 99 100.4